 day,  time,  air_temp(C),  RH(%),  ground_temp10cm(C),  ground_temp20cm(C),  ground_temp40cm(C),  precipitation(mm/h),  Solar_Radiation(MJ/m2h),  lack, 
 09/07/01, 01:00,  16.3, -9999,  19.4,  19.0,  17.5,   0.5,  0.00, 
 09/07/01, 02:00,  17.0, -9999,  19.1,  18.9,  17.5,   0.0,  0.00, 
 09/07/01, 03:00,  17.0, -9999,  18.9,  18.9,  17.5,   0.0,  0.00, 
 09/07/01, 04:00,  17.2, -9999,  18.8,  18.8,  17.5,   0.0,  0.00, 
 09/07/01, 05:00,  17.4, -9999,  18.7,  18.8,  17.5,   0.5,  0.00, 
 09/07/01, 06:00,  17.2, -9999,  18.6,  18.7,  17.4,   0.0,  0.00, 
 09/07/01, 07:00,  17.0, -9999,  18.6,  18.7,  17.5,   0.5,  0.01, 
 09/07/01, 08:00,  17.2, -9999,  18.5,  18.6,  17.4,   0.0,  0.15, 
 09/07/01, 09:00,  17.6, -9999,  18.5,  18.6,  17.5,   0.0,  0.23, 
 09/07/01, 10:00,  19.9, -9999,  18.6,  18.6,  17.5,   0.0,  1.79, 
 09/07/01, 11:00,  18.3, -9999,  19.1,  18.5,  17.4,   0.0,  0.40, 
 09/07/01, 12:00,  17.8, -9999,  19.2,  18.5,  17.5,   0.0,  0.25, 
 09/07/01, 13:00,  17.8, -9999,  19.1,  18.5,  17.5,   0.0,  0.21, 
 09/07/01, 14:00,  18.0, -9999,  19.1,  18.5,  17.4,   0.0,  0.39, 
 09/07/01, 15:00,  18.0, -9999,  19.1,  18.6,  17.5,   0.5,  0.35, 
 09/07/01, 16:00,  18.5, -9999,  19.1,  18.6,  17.4,   0.0,  0.49, 
 09/07/01, 17:00,  18.3, -9999,  19.2,  18.6,  17.5,   1.5,  0.30, 
 09/07/01, 18:00,  18.1, -9999,  19.2,  18.6,  17.5,   0.0,  0.17, 
 09/07/01, 19:00,  18.3, -9999,  19.1,  18.6,  17.5,   0.0,  0.01, 
 09/07/01, 20:00,  18.1, -9999,  19.0,  18.6,  17.4,   1.0,  0.00, 
 09/07/01, 21:00,  18.0, -9999,  18.9,  18.6,  17.5,   0.0,  0.00, 
 09/07/01, 22:00,  17.8, -9999,  18.8,  18.6,  17.5,   1.0,  0.00, 
 09/07/01, 23:00,  17.6, -9999,  18.8,  18.6,  17.5,   0.5,  0.00, 
 09/07/02, 00:00,  17.7, -9999,  18.7,  18.6,  17.5,   0.0,  0.00, 
 09/07/02, 01:00,  17.9, -9999,  18.6,  18.5,  17.5,   0.0,  0.00, 
 09/07/02, 02:00,  17.4, -9999,  18.5,  18.5,  17.5,   0.0,  0.00, 
 09/07/02, 03:00,  16.7, -9999,  18.5,  18.5,  17.5,   0.5,  0.00, 
 09/07/02, 04:00,  16.5, -9999,  18.4,  18.5,  17.5,   0.0,  0.00, 
 09/07/02, 05:00,  16.3, -9999,  18.3,  18.4,  17.5,   0.0,  0.00, 
 09/07/02, 06:00,  16.2, -9999,  18.4,  18.4,  17.5,   0.0,  0.01, 
 09/07/02, 07:00,  16.2, -9999,  18.2,  18.4,  17.4,   0.0,  0.34, 
 09/07/02, 08:00,  15.8, -9999,  18.2,  18.3,  17.5,   0.0,  0.23, 
 09/07/02, 09:00,  15.5, -9999,  18.3,  18.3,  17.5,   0.0,  0.58, 
 09/07/02, 10:00,  15.3, -9999,  18.4,  18.3,  17.4,   0.0,  0.91, 
 09/07/02, 11:00,  15.6, -9999,  18.6,  18.2,  17.4,   0.0,  0.73, 
 09/07/02, 12:00,  15.8, -9999,  18.7,  18.2,  17.4,   0.0,  0.97, 
 09/07/02, 13:00,  16.7, -9999,  18.9,  18.3,  17.5,   0.0,  1.44, 
 09/07/02, 14:00,  16.8, -9999,  19.2,  18.3,  17.5,   0.0,  0.93, 
 09/07/02, 15:00,  17.3, -9999,  19.5,  18.3,  17.5,   0.0,  1.25, 
 09/07/02, 16:00,  18.4, -9999,  19.8,  18.4,  17.5,   0.0,  1.26, 
 09/07/02, 17:00,  17.5, -9999,  20.0,  18.4,  17.5,   0.0,  0.80, 
 09/07/02, 18:00,  17.0, -9999,  20.0,  18.5,  17.5,   0.0,  0.29, 
 09/07/02, 19:00,  16.4, -9999,  19.9,  18.6,  17.5,   0.0,  0.08, 
 09/07/02, 20:00,  15.7, -9999,  19.7,  18.6,  17.5,   0.0,  0.00, 
 09/07/02, 21:00,  15.4, -9999,  19.4,  18.7,  17.5,   0.0,  0.00, 
 09/07/02, 22:00,  15.2, -9999,  19.1,  18.7,  17.5,   0.0,  0.00, 
 09/07/02, 23:00,  14.9, -9999,  18.9,  18.7,  17.5,   0.0,  0.00, 
 09/07/03, 00:00,  14.9, -9999,  18.8,  18.7,  17.5,   0.0,  0.00, 
 09/07/03, 01:00,  14.8, -9999,  18.6,  18.6,  17.5,   0.0,  0.00, 
 09/07/03, 02:00,  14.5, -9999,  18.5,  18.6,  17.5,   0.0,  0.00, 
 09/07/03, 03:00,  14.3, -9999,  18.3,  18.5,  17.4,   0.0,  0.00, 
 09/07/03, 04:00,  14.3, -9999,  18.1,  18.5,  17.4,   0.0,  0.00, 
 09/07/03, 05:00,  14.3, -9999,  18.0,  18.4,  17.4,   0.5,  0.00, 
 09/07/03, 06:00,  14.6, -9999,  17.8,  18.4,  17.4,   0.0,  0.14, 
 09/07/03, 07:00,  15.6, -9999,  17.8,  18.3,  17.5,   0.0,  0.59, 
 09/07/03, 08:00,  15.7, -9999,  17.8,  18.2,  17.4,   0.0,  0.68, 
 09/07/03, 09:00,  16.2, -9999,  18.0,  18.2,  17.4,   0.0,  0.68, 
 09/07/03, 10:00,  17.1, -9999,  18.2,  18.1,  17.4,   0.0,  0.92, 
 09/07/03, 11:00,  18.0, -9999,  18.6,  18.1,  17.5,   0.0,  1.56, 
 09/07/03, 12:00,  20.1, -9999,  19.0,  18.1,  17.5,   0.0,  2.59, 
 09/07/03, 13:00,  19.9, -9999,  20.1,  18.2,  17.5,   0.0,  2.38, 
 09/07/03, 14:00,  19.9, -9999,  20.6,  18.2,  17.5,   0.0,  2.02, 
 09/07/03, 15:00,  19.9, -9999,  20.9,  18.4,  17.5,   0.0,  1.98, 
 09/07/03, 16:00,  19.4, -9999,  21.0,  18.5,  17.5,   0.0,  1.47, 
 09/07/03, 17:00,  18.3, -9999,  21.1,  18.7,  17.4,   0.0,  0.84, 
 09/07/03, 18:00,  17.5, -9999,  20.9,  18.8,  17.4,   0.0,  0.40, 
 09/07/03, 19:00,  16.2, -9999,  20.7,  18.9,  17.4,   0.0,  0.07, 
 09/07/03, 20:00,  15.2, -9999,  20.4,  18.9,  17.3,   0.0,  0.00, 
 09/07/03, 21:00,  14.5, -9999,  20.0,  19.0,  17.4,   0.5,  0.00, 
 09/07/03, 22:00,  13.4, -9999,  19.7,  19.0,  17.4,   0.5,  0.00, 
 09/07/03, 23:00,  13.5, -9999,  19.4,  18.9,  17.4,   0.5,  0.00, 
 09/07/04, 00:00,  13.2, -9999,  19.0,  18.9,  17.4,   0.0,  0.00, 
 09/07/04, 01:00,  13.2, -9999,  18.7,  18.9,  17.5,   0.5,  0.00, 
 09/07/04, 02:00,  13.1, -9999,  18.5,  18.9,  17.4,   0.5,  0.00, 
 09/07/04, 03:00,  12.6, -9999,  18.3,  18.7,  17.4,   0.0,  0.00, 
 09/07/04, 04:00,  12.3, -9999,  18.1,  18.7,  17.4,   0.0,  0.00, 
 09/07/04, 05:00,  12.5, -9999,  17.9,  18.5,  17.4,   0.0,  0.00, 
 09/07/04, 06:00,  12.7, -9999,  17.7,  18.5,  17.4,   0.0,  0.04, 
 09/07/04, 07:00,  13.7, -9999,  17.6,  18.5,  17.5,   0.0,  0.44, 
 09/07/04, 08:00,  14.4, -9999,  17.7,  18.4,  17.5,   0.0,  1.28, 
 09/07/04, 09:00,  15.7, -9999,  17.9,  18.3,  17.6,   0.0,  2.20, 
 09/07/04, 10:00,  15.6, -9999,  18.4,  18.2,  17.5,   0.0,  1.39, 
 09/07/04, 11:00,  17.6, -9999,  18.8,  18.2,  17.4,   0.0,  1.84, 
 09/07/04, 12:00,  19.4, -9999,  19.5,  18.2,  17.5,   0.0,  3.02, 
 09/07/04, 13:00,  20.0, -9999,  20.7,  18.3,  17.4,   0.0,  3.17, 
 09/07/04, 14:00,  18.8, -9999,  21.2,  18.4,  17.4,   0.0,  1.86, 
 09/07/04, 15:00,  20.3, -9999,  21.4,  18.6,  17.5,   0.0,  2.47, 
 09/07/04, 16:00,  15.5, -9999,  21.3,  18.7,  17.4,   0.5,  0.41, 
 09/07/04, 17:00,  14.5, -9999,  20.9,  18.8,  17.4,   1.0,  0.46, 
 09/07/04, 18:00,  15.5, -9999,  20.7,  18.9,  17.4,   0.0,  0.44, 
 09/07/04, 19:00,  15.0, -9999,  20.4,  19.1,  17.5,   1.0,  0.01, 
 09/07/04, 20:00,  13.6, -9999,  20.0,  19.2,  17.4,   1.5,  0.00, 
 09/07/04, 21:00,  13.7, -9999,  19.6,  19.1,  17.4,   0.0,  0.00, 
 09/07/04, 22:00,  14.2, -9999,  19.2,  19.1,  17.5,   0.0,  0.00, 
 09/07/04, 23:00,  14.3, -9999,  19.0,  19.1,  17.5,   0.0,  0.00, 
 09/07/05, 00:00,  14.3, -9999,  18.7,  18.9,  17.6,   0.0,  0.00, 
 09/07/05, 01:00,  14.1, -9999,  18.5,  18.9,  17.6,   0.0,  0.00, 
 09/07/05, 02:00,  13.9, -9999,  18.3,  18.8,  17.5,   0.0,  0.00, 
 09/07/05, 03:00,  13.5, -9999,  18.1,  18.7,  17.5,   0.0,  0.00, 
 09/07/05, 04:00,  13.6, -9999,  17.9,  18.7,  17.5,   0.0,  0.00, 
 09/07/05, 05:00,  13.6, -9999,  17.7,  18.5,  17.5,   0.0,  0.00, 
 09/07/05, 06:00,  13.6, -9999,  17.6,  18.5,  17.5,   0.0,  0.08, 
 09/07/05, 07:00,  14.8, -9999,  17.4,  18.4,  17.5,   0.0,  0.44, 
 09/07/05, 08:00,  16.3, -9999,  17.5,  18.3,  17.5,   0.0,  1.16, 
 09/07/05, 09:00,  17.8, -9999,  17.8,  18.3,  17.5,   0.0,  1.90, 
 09/07/05, 10:00,  18.6, -9999,  18.4,  18.2,  17.5,   0.0,  2.35, 
 09/07/05, 11:00,  19.5, -9999,  19.1,  18.1,  17.5,   0.0,  2.49, 
 09/07/05, 12:00,  20.0, -9999,  20.1,  18.2,  17.6,   0.0,  2.67, 
 09/07/05, 13:00,  20.1, -9999,  20.8,  18.3,  17.6,   0.0,  1.78, 
 09/07/05, 14:00,  22.3, -9999,  21.2,  18.5,  17.6,   0.0,  2.98, 
 09/07/05, 15:00,  22.6, -9999,  21.4,  18.6,  17.6,   0.0,  2.98, 
 09/07/05, 16:00,  20.0, -9999,  21.6,  18.7,  17.5,   0.0,  1.83, 
 09/07/05, 17:00,  19.4, -9999,  21.8,  19.0,  17.6,   0.0,  1.50, 
 09/07/05, 18:00,  18.5, -9999,  21.8,  19.1,  17.6,   0.0,  0.75, 
 09/07/05, 19:00,  16.7, -9999,  21.6,  19.3,  17.6,   0.0,  0.21, 
 09/07/05, 20:00,  15.6, -9999,  21.2,  19.4,  17.6,   0.0,  0.00, 
 09/07/05, 21:00,  15.4, -9999,  20.8,  19.4,  17.6,   0.0,  0.00, 
 09/07/05, 22:00,  14.5, -9999,  20.4,  19.5,  17.6,   0.0,  0.00, 
 09/07/05, 23:00,  14.4, -9999,  20.0,  19.5,  17.6,   0.0,  0.00, 
 09/07/06, 00:00,  14.4, -9999,  19.6,  19.4,  17.5,   0.0,  0.00, 
 09/07/06, 01:00,  14.9, -9999,  19.4,  19.4,  17.6,   0.0,  0.00, 
 09/07/06, 02:00,  15.2, -9999,  19.1,  19.3,  17.7,   0.0,  0.00, 
 09/07/06, 03:00,  15.2, -9999,  18.9,  19.2,  17.7,   0.0,  0.00, 
 09/07/06, 04:00,  14.9, -9999,  18.8,  19.0,  17.6,   0.0,  0.00, 
 09/07/06, 05:00,  15.6, -9999,  18.7,  19.0,  17.6,   0.0,  0.00, 
 09/07/06, 06:00,  15.6, -9999,  18.5,  18.9,  17.6,   0.5,  0.04, 
 09/07/06, 07:00,  16.1, -9999,  18.5,  18.9,  17.7,   0.0,  0.19, 
 09/07/06, 08:00,  17.2, -9999,  18.5,  18.8,  17.7,   0.0,  0.74, 
 09/07/06, 09:00,  18.4, -9999,  18.8,  18.7,  17.6,   0.0,  1.27, 
 09/07/06, 10:00,  17.6, -9999,  19.1,  18.7,  17.6,   0.0,  1.06, 
 09/07/06, 11:00,  17.5, -9999,  19.5,  18.7,  17.7,   0.5,  0.54, 
 09/07/06, 12:00,  18.2, -9999,  19.7,  18.7,  17.7,   0.5,  0.66, 
 09/07/06, 13:00,  17.8, -9999,  19.9,  18.8,  17.7,   2.0,  0.57, 
 09/07/06, 14:00,  18.4, -9999,  20.0,  18.7,  17.7,   0.0,  0.94, 
 09/07/06, 15:00,  18.7, -9999,  20.2,  18.9,  17.7,   0.0,  1.01, 
 09/07/06, 16:00,  18.4, -9999,  20.4,  18.8,  17.6,   0.0,  0.78, 
 09/07/06, 17:00,  18.0, -9999,  20.5,  18.9,  17.6,   0.0,  0.45, 
 09/07/06, 18:00,  17.9, -9999,  20.4,  19.0,  17.7,   0.0,  0.34, 
 09/07/06, 19:00,  17.4, -9999,  20.3,  19.1,  17.7,   0.0,  0.08, 
 09/07/06, 20:00,  17.1, -9999,  20.1,  19.1,  17.7,   0.0,  0.00, 
 09/07/06, 21:00,  16.9, -9999,  19.9,  19.1,  17.7,   0.0,  0.00, 
 09/07/06, 22:00,  16.9, -9999,  19.7,  19.2,  17.7,   0.0,  0.00, 
 09/07/06, 23:00,  17.2, -9999,  19.5,  19.2,  17.7,   0.0,  0.00, 
 09/07/07, 00:00,  17.0, -9999,  19.2,  19.1,  17.7,   1.5,  0.00, 
 09/07/07, 01:00,  16.6, -9999,  19.0,  19.1,  17.7,   1.5,  0.00, 
 09/07/07, 02:00,  16.9, -9999,  18.9,  19.1,  17.7,   0.0,  0.00, 
 09/07/07, 03:00,  17.0, -9999,  18.8,  19.0,  17.8,   0.0,  0.00, 
 09/07/07, 04:00,  16.8, -9999,  18.7,  18.8,  17.7,   2.5,  0.00, 
 09/07/07, 05:00,  16.4, -9999,  18.6,  18.8,  17.7,   1.0,  0.00, 
 09/07/07, 06:00,  16.6, -9999,  18.5,  18.7,  17.7,   0.0,  0.05, 
 09/07/07, 07:00,  16.5, -9999,  18.4,  18.7,  17.7,   1.5,  0.14, 
 09/07/07, 08:00,  17.4, -9999,  18.4,  18.7,  17.7,   0.0,  0.70, 
 09/07/07, 09:00,  18.6, -9999,  18.7,  18.7,  17.7,   0.0,  1.19, 
 09/07/07, 10:00,  19.6, -9999,  19.0,  18.7,  17.7,   0.0,  1.48, 
 09/07/07, 11:00,  19.6, -9999,  19.6,  18.6,  17.7,   0.0,  1.81, 
 09/07/07, 12:00,  18.7, -9999,  20.1,  18.7,  17.7,   2.5,  0.92, 
 09/07/07, 13:00,  18.7, -9999,  20.4,  18.7,  17.8,   0.5,  0.93, 
 09/07/07, 14:00,  18.7, -9999,  20.6,  18.7,  17.8,   1.5,  0.90, 
 09/07/07, 15:00,  17.8, -9999,  20.8,  19.0,  17.7,   7.0,  0.51, 
 09/07/07, 16:00,  18.5, -9999,  20.7,  19.1,  17.7,   0.0,  0.92, 
 09/07/07, 17:00,  18.0, -9999,  20.7,  19.1,  17.7,   0.0,  0.52, 
 09/07/07, 18:00,  17.8, -9999,  20.6,  19.3,  17.7,   0.0,  0.29, 
 09/07/07, 19:00,  17.0, -9999,  20.5,  19.3,  17.8,   0.5,  0.07, 
 09/07/07, 20:00,  16.3, -9999,  20.2,  19.4,  17.8,   1.5,  0.00, 
 09/07/07, 21:00,  16.1, -9999,  19.9,  19.4,  17.8,   3.0,  0.00, 
 09/07/07, 22:00,  16.7, -9999,  19.7,  19.4,  17.8,   0.0,  0.00, 
 09/07/07, 23:00,  16.9, -9999,  19.5,  19.4,  17.8,   0.0,  0.00, 
 09/07/08, 00:00,  16.8, -9999,  19.2,  19.3,  17.8,   0.0,  0.00, 
 09/07/08, 01:00,  17.1, -9999,  19.0,  19.2,  17.9,   0.0,  0.00, 
 09/07/08, 02:00,  17.4, -9999,  18.9,  19.1,  17.9,   0.0,  0.00, 
 09/07/08, 03:00,  16.9, -9999,  18.8,  19.1,  17.9,   0.5,  0.00, 
 09/07/08, 04:00,  16.7, -9999,  18.7,  19.0,  17.9,   0.5,  0.00, 
 09/07/08, 05:00,  16.6, -9999,  18.6,  18.9,  17.9,   0.5,  0.00, 
 09/07/08, 06:00,  16.7, -9999,  18.5,  18.8,  17.9,   2.0,  0.00, 
 09/07/08, 07:00,  16.5, -9999,  18.3,  18.8,  17.9,  14.5,  0.00, 
 09/07/08, 08:00,  16.5, -9999,  17.8,  18.7,  17.9,  21.0,  0.01, 
 09/07/08, 09:00,  16.6, -9999,  17.6,  18.6,  17.9,   8.5,  0.06, 
 09/07/08, 10:00,  16.9, -9999,  17.7,  18.5,  17.9,   3.5,  0.24, 
 09/07/08, 11:00,  17.0, -9999,  17.7,  18.4,  18.0,   2.5,  0.21, 
 09/07/08, 12:00,  17.4, -9999,  17.8,  18.4,  18.0,   0.5,  0.32, 
 09/07/08, 13:00,  17.1, -9999,  18.0,  18.3,  18.0,   1.0,  0.31, 
 09/07/08, 14:00,  17.3, -9999,  18.1,  18.3,  18.0,   1.5,  0.41, 
 09/07/08, 15:00,  17.4, -9999,  18.2,  18.3,  17.9,   0.5,  0.39, 
 09/07/08, 16:00,  17.3, -9999,  18.4,  18.3,  17.9,   1.5,  0.36, 
 09/07/08, 17:00,  17.3, -9999,  18.4,  18.3,  17.9,   1.0,  0.21, 
 09/07/08, 18:00,  17.2, -9999,  18.4,  18.3,  17.9,   0.0,  0.07, 
 09/07/08, 19:00,  17.0, -9999,  18.4,  18.3,  17.9,   0.0,  0.00, 
 09/07/08, 20:00,  17.2, -9999,  18.3,  18.3,  17.9,   0.5,  0.00, 
 09/07/08, 21:00,  17.3, -9999,  18.3,  18.3,  17.9,   0.0,  0.00, 
 09/07/08, 22:00,  17.3, -9999,  18.2,  18.3,  17.9,   0.5,  0.00, 
 09/07/08, 23:00,  17.1, -9999,  18.2,  18.3,  17.9,   0.0,  0.00, 
 09/07/09, 00:00,  17.3, -9999,  18.1,  18.3,  17.8,   1.0,  0.00, 
 09/07/09, 01:00,  17.3, -9999,  18.1,  18.2,  17.8,   0.5,  0.00, 
 09/07/09, 02:00,  17.3, -9999,  18.0,  18.2,  17.8,   1.5,  0.00, 
 09/07/09, 03:00,  17.2, -9999,  18.0,  18.2,  17.8,   6.0,  0.00, 
 09/07/09, 04:00,  17.2, -9999,  17.9,  18.2,  17.8,   9.5,  0.00, 
 09/07/09, 05:00,  17.5, -9999,  17.8,  18.2,  17.8,   1.5,  0.00, 
 09/07/09, 06:00,  17.5, -9999,  17.8,  18.0,  17.8,   0.0,  0.00, 
 09/07/09, 07:00,  17.7, -9999,  17.8,  18.1,  17.8,   0.0,  0.10, 
 09/07/09, 08:00,  17.9, -9999,  17.9,  18.1,  17.8,   0.0,  0.47, 
 09/07/09, 09:00,  17.8, -9999,  18.1,  18.1,  17.8,   0.0,  0.22, 
 09/07/09, 10:00,  18.0, -9999,  18.2,  18.1,  17.8,   1.0,  0.29, 
 09/07/09, 11:00,  18.2, -9999,  18.3,  18.1,  17.7,   0.0,  0.20, 
 09/07/09, 12:00,  18.3, -9999,  18.4,  18.1,  17.7,   0.5,  0.32, 
 09/07/09, 13:00,  18.1, -9999,  18.5,  18.1,  17.7,   0.0,  0.16, 
 09/07/09, 14:00,  18.4, -9999,  18.5,  18.1,  17.7,   0.0,  0.18, 
 09/07/09, 15:00,  18.2, -9999,  18.5,  18.1,  17.7,   0.0,  0.15, 
 09/07/09, 16:00,  18.4, -9999,  18.6,  18.2,  17.7,   0.0,  0.17, 
 09/07/09, 17:00,  18.2, -9999,  18.6,  18.2,  17.7,   0.0,  0.34, 
 09/07/09, 18:00,  17.9, -9999,  18.6,  18.2,  17.7,   0.0,  0.17, 
 09/07/09, 19:00,  18.3, -9999,  18.6,  18.2,  17.7,   0.0,  0.04, 
 09/07/09, 20:00,  18.4, -9999,  18.6,  18.1,  17.7,   0.0,  0.00, 
 09/07/09, 21:00,  18.6, -9999,  18.5,  18.2,  17.7,   0.0,  0.00, 
 09/07/09, 22:00,  18.6, -9999,  18.4,  18.3,  17.7,   0.0,  0.00, 
 09/07/09, 23:00,  18.6, -9999,  18.4,  18.3,  17.7,   0.0,  0.00, 
 09/07/10, 00:00,  18.6, -9999,  18.3,  18.3,  17.7,   0.0,  0.00, 
 09/07/10, 01:00,  18.6, -9999,  18.3,  18.3,  17.7,   0.0,  0.00, 
 09/07/10, 02:00,  18.5, -9999,  18.2,  18.2,  17.7,   0.0,  0.00, 
 09/07/10, 03:00,  18.6, -9999,  18.2,  18.2,  17.7,   0.0,  0.00, 
 09/07/10, 04:00,  18.4, -9999,  18.2,  18.2,  17.7,   0.0,  0.00, 
 09/07/10, 05:00,  18.5, -9999,  18.1,  18.2,  17.7,   0.0,  0.00, 
 09/07/10, 06:00,  18.4, -9999,  18.1,  18.2,  17.7,   0.0,  0.03, 
 09/07/10, 07:00,  18.5, -9999,  18.1,  18.2,  17.7,   0.0,  0.06, 
 09/07/10, 08:00,  18.2, -9999,  18.1,  18.1,  17.7,   1.0,  0.05, 
 09/07/10, 09:00,  18.2, -9999,  18.2,  18.1,  17.7,   4.5,  0.15, 
 09/07/10, 10:00,  17.9, -9999,  18.2,  18.1,  17.6,   1.0,  0.21, 
 09/07/10, 11:00,  17.9, -9999,  18.3,  18.1,  17.6,   3.5,  0.18, 
 09/07/10, 12:00,  17.9, -9999,  18.3,  18.1,  17.6,   0.0,  0.26, 
 09/07/10, 13:00,  18.0, -9999,  18.4,  18.1,  17.6,   0.5,  0.21, 
 09/07/10, 14:00,  18.6, -9999,  18.5,  18.1,  17.7,   0.0,  0.62, 
 09/07/10, 15:00,  18.5, -9999,  18.7,  18.2,  17.7,   1.5,  1.11, 
 09/07/10, 16:00,  19.0, -9999,  19.0,  18.2,  17.7,   0.0,  0.89, 
 09/07/10, 17:00,  19.0, -9999,  19.1,  18.2,  17.7,   0.0,  0.64, 
 09/07/10, 18:00,  18.8, -9999,  19.2,  18.3,  17.6,   0.0,  0.47, 
 09/07/10, 19:00,  17.8, -9999,  19.2,  18.2,  17.6,   0.0,  0.04, 
 09/07/10, 20:00,  16.5, -9999,  19.1,  18.4,  17.7,   0.0,  0.00, 
 09/07/10, 21:00,  16.5, -9999,  18.9,  18.4,  17.7,   0.0,  0.00, 
 09/07/10, 22:00,  16.6, -9999,  18.7,  18.4,  17.7,   0.0,  0.00, 
 09/07/10, 23:00,  16.3, -9999,  18.5,  18.3,  17.6,   0.0,  0.00, 
 09/07/11, 00:00,  16.3, -9999,  18.4,  18.4,  17.6,   0.0,  0.00, 
 09/07/11, 01:00,  16.5, -9999,  18.3,  18.4,  17.6,   0.0,  0.00, 
 09/07/11, 02:00,  15.8, -9999,  18.2,  18.4,  17.6,   0.0,  0.00, 
 09/07/11, 03:00,  15.6, -9999,  18.1,  18.3,  17.7,   0.0,  0.00, 
 09/07/11, 04:00,  15.4, -9999,  17.9,  18.2,  17.6,   0.0,  0.00, 
 09/07/11, 05:00,  15.5, -9999,  17.7,  18.2,  17.6,   0.0,  0.00, 
 09/07/11, 06:00,  15.7, -9999,  17.6,  18.1,  17.6,   0.0,  0.11, 
 09/07/11, 07:00,  16.6, -9999,  17.5,  18.0,  17.6,   0.0,  0.54, 
 09/07/11, 08:00,  18.6, -9999,  17.6,  18.0,  17.6,   0.0,  1.23, 
 09/07/11, 09:00,  20.0, -9999,  18.0,  17.9,  17.6,   0.0,  1.92, 
 09/07/11, 10:00,  18.3, -9999,  18.6,  18.0,  17.6,   0.0,  1.62, 
 09/07/11, 11:00,  19.0, -9999,  19.2,  18.0,  17.7,   0.0,  1.79, 
 09/07/11, 12:00,  18.6, -9999,  19.8,  18.1,  17.7,   0.0,  1.56, 
 09/07/11, 13:00,  19.2, -9999,  20.3,  18.2,  17.6,   0.0,  2.24, 
 09/07/11, 14:00,  19.5, -9999,  20.7,  18.3,  17.7,   0.0,  1.82, 
 09/07/11, 15:00,  19.2, -9999,  20.8,  18.5,  17.7,   0.0,  1.68, 
 09/07/11, 16:00,  18.8, -9999,  20.9,  18.6,  17.7,   0.0,  1.21, 
 09/07/11, 17:00,  18.1, -9999,  20.9,  18.7,  17.7,   0.0,  1.14, 
 09/07/11, 18:00,  17.7, -9999,  20.8,  18.8,  17.7,   0.0,  0.91, 
 09/07/11, 19:00,  16.6, -9999,  20.7,  18.9,  17.6,   0.0,  0.22, 
 09/07/11, 20:00,  15.4, -9999,  20.3,  18.9,  17.7,   0.0,  0.00, 
 09/07/11, 21:00,  15.5, -9999,  19.9,  19.0,  17.6,   0.0,  0.00, 
 09/07/11, 22:00,  15.3, -9999,  19.6,  19.0,  17.6,   0.0,  0.00, 
 09/07/11, 23:00,  14.1, -9999,  19.1,  19.0,  17.6,   0.0,  0.00, 
 09/07/12, 00:00,  13.9, -9999,  18.9,  18.9,  17.7,   0.0,  0.00, 
 09/07/12, 01:00,  13.9, -9999,  18.6,  18.9,  17.7,   0.0,  0.00, 
 09/07/12, 02:00,  13.7, -9999,  18.4,  18.8,  17.7,   0.0,  0.00, 
 09/07/12, 03:00,  13.9, -9999,  18.1,  18.7,  17.7,   0.0,  0.00, 
 09/07/12, 04:00,  14.2, -9999,  17.9,  18.6,  17.7,   0.0,  0.00, 
 09/07/12, 05:00,  15.0, -9999,  17.8,  18.5,  17.7,   0.0,  0.00, 
 09/07/12, 06:00,  15.1, -9999,  17.6,  18.5,  17.7,   0.0,  0.01, 
 09/07/12, 07:00,  16.5, -9999,  17.6,  18.5,  17.7,   0.0,  0.37, 
 09/07/12, 08:00,  17.0, -9999,  17.7,  18.4,  17.7,   0.0,  0.69, 
 09/07/12, 09:00,  18.5, -9999,  17.9,  18.3,  17.7,   0.0,  1.06, 
 09/07/12, 10:00,  17.8, -9999,  18.3,  18.3,  17.7,   0.0,  0.77, 
 09/07/12, 11:00,  17.0, -9999,  18.5,  18.2,  17.7,   0.0,  0.57, 
 09/07/12, 12:00,  17.3, -9999,  18.5,  18.2,  17.7,   0.0,  0.59, 
 09/07/12, 13:00,  18.2, -9999,  18.7,  18.3,  17.7,   0.0,  1.09, 
 09/07/12, 14:00,  20.6, -9999,  19.1,  18.3,  17.7,   0.0,  2.16, 
 09/07/12, 15:00,  19.9, -9999,  19.7,  18.3,  17.7,   0.0,  1.15, 
 09/07/12, 16:00,  20.0, -9999,  19.9,  18.4,  17.7,   0.0,  0.68, 
 09/07/12, 17:00,  20.8, -9999,  19.9,  18.5,  17.7,   0.0,  1.29, 
 09/07/12, 18:00,  19.4, -9999,  20.1,  18.5,  17.7,   0.0,  0.48, 
 09/07/12, 19:00,  19.0, -9999,  20.0,  18.6,  17.8,   0.0,  0.09, 
 09/07/12, 20:00,  18.5, -9999,  19.8,  18.7,  17.8,   0.0,  0.00, 
 09/07/12, 21:00,  18.8, -9999,  19.6,  18.7,  17.8,   0.0,  0.00, 
 09/07/12, 22:00,  19.4, -9999,  19.4,  18.7,  17.8,   0.0,  0.00, 
 09/07/12, 23:00,  19.0, -9999,  19.1,  18.7,  17.8,   0.0,  0.00, 
 09/07/13, 00:00,  19.1, -9999,  18.9,  18.7,  17.8,   0.0,  0.00, 
 09/07/13, 01:00,  19.1, -9999,  18.8,  18.7,  17.7,   0.0,  0.00, 
 09/07/13, 02:00,  19.1, -9999,  18.7,  18.6,  17.7,   0.0,  0.00, 
 09/07/13, 03:00,  18.7, -9999,  18.6,  18.6,  17.7,   0.0,  0.00, 
 09/07/13, 04:00,  18.2, -9999,  18.6,  18.6,  17.7,   0.0,  0.00, 
 09/07/13, 05:00,  18.3, -9999,  18.5,  18.6,  17.7,   0.0,  0.00, 
 09/07/13, 06:00,  18.3, -9999,  18.4,  18.5,  17.7,   0.0,  0.00, 
 09/07/13, 07:00,  18.8, -9999,  18.4,  18.5,  17.7,   0.0,  0.14, 
 09/07/13, 08:00,  18.6, -9999,  18.4,  18.5,  17.7,   0.0,  0.22, 
 09/07/13, 09:00,  18.2, -9999,  18.5,  18.5,  17.7,   0.0,  0.18, 
 09/07/13, 10:00,  18.6, -9999,  18.5,  18.5,  17.7,   0.0,  0.27, 
 09/07/13, 11:00,  18.0, -9999,  18.6,  18.4,  17.7,   0.5,  0.25, 
 09/07/13, 12:00,  18.3, -9999,  18.6,  18.3,  17.7,   0.0,  0.21, 
 09/07/13, 13:00,  18.2, -9999,  18.7,  18.4,  17.7,   6.0,  0.16, 
 09/07/13, 14:00,  18.7, -9999,  18.7,  18.4,  17.7,   0.0,  0.33, 
 09/07/13, 15:00,  18.6, -9999,  18.8,  18.4,  17.7,   0.0,  0.41, 
 09/07/13, 16:00,  18.9, -9999,  19.0,  18.4,  17.7,   0.0,  0.46, 
 09/07/13, 17:00,  19.0, -9999,  19.1,  18.5,  17.7,   0.5,  0.33, 
 09/07/13, 18:00,  19.3, -9999,  19.2,  18.5,  17.7,   0.0,  0.59, 
 09/07/13, 19:00,  18.6, -9999,  19.2,  18.5,  17.7,   0.0,  0.19, 
 09/07/13, 20:00,  17.8, -9999,  19.0,  18.5,  17.7,   0.0,  0.00, 
 09/07/13, 21:00,  17.7, -9999,  18.9,  18.5,  17.7,   0.0,  0.00, 
 09/07/13, 22:00,  17.4, -9999,  18.7,  18.5,  17.7,   0.0,  0.00, 
 09/07/13, 23:00,  17.8, -9999,  18.6,  18.5,  17.7,   0.0,  0.00, 
 09/07/14, 00:00,  18.0, -9999,  18.4,  18.5,  17.7,   0.0,  0.00, 
 09/07/14, 01:00,  17.4, -9999,  18.3,  18.5,  17.7,   0.0,  0.00, 
 09/07/14, 02:00,  18.6, -9999,  18.2,  18.5,  17.7,   0.0,  0.00, 
 09/07/14, 03:00,  18.4, -9999,  18.0,  18.3,  17.7,   0.0,  0.00, 
 09/07/14, 04:00,  18.3, -9999,  17.9,  18.4,  17.7,   0.0,  0.00, 
 09/07/14, 05:00,  18.0, -9999,  17.8,  18.2,  17.7,   0.0,  0.00, 
 09/07/14, 06:00,  17.9, -9999,  17.7,  18.3,  17.8,   0.0,  0.01, 
 09/07/14, 07:00,  16.8, -9999,  17.6,  18.1,  17.7,   0.0,  0.28, 
 09/07/14, 08:00,  20.5, -9999,  17.6,  18.1,  17.7,   0.0,  1.03, 
 09/07/14, 09:00,  20.4, -9999,  18.1,  18.0,  17.7,   0.0,  1.94, 
 09/07/14, 10:00,  22.6, -9999,  18.7,  18.1,  17.8,   0.0,  2.53, 
 09/07/14, 11:00,  24.5, -9999,  19.7,  18.0,  17.7,   0.0,  3.24, 
 09/07/14, 12:00,  23.4, -9999,  21.2,  18.2,  17.8,   0.0,  2.42, 
 09/07/14, 13:00,  23.7, -9999,  21.9,  18.4,  17.7,   0.0,  2.26, 
 09/07/14, 14:00,  23.8, -9999,  22.5,  18.6,  17.7,   0.0,  2.31, 
 09/07/14, 15:00,  23.2, -9999,  22.7,  18.8,  17.7,   0.0,  1.40, 
 09/07/14, 16:00,  23.6, -9999,  22.8,  19.0,  17.8,   0.0,  1.30, 
 09/07/14, 17:00,  23.9, -9999,  22.8,  19.3,  17.8,   0.0,  1.34, 
 09/07/14, 18:00,  21.8, -9999,  22.8,  19.5,  17.7,   0.0,  0.68, 
 09/07/14, 19:00,  21.0, -9999,  22.6,  19.7,  17.8,   0.0,  0.09, 
 09/07/14, 20:00,  21.1, -9999,  22.3,  19.8,  17.7,   0.0,  0.00, 
 09/07/14, 21:00,  20.7, -9999,  21.9,  19.9,  17.8,   0.0,  0.00, 
 09/07/14, 22:00,  20.6, -9999,  21.6,  20.0,  17.8,   0.0,  0.00, 
 09/07/14, 23:00,  20.5, -9999,  21.3,  20.0,  17.8,   0.0,  0.00, 
 09/07/15, 00:00,  19.7, -9999,  21.0,  20.0,  17.8,   0.0,  0.00, 
 09/07/15, 01:00,  18.9, -9999,  20.9,  20.0,  17.8,   0.0,  0.00, 
 09/07/15, 02:00,  19.1, -9999,  20.6,  20.0,  17.8,   0.0,  0.00, 
 09/07/15, 03:00,  18.9, -9999,  20.3,  19.9,  17.8,   0.0,  0.00, 
 09/07/15, 04:00,  18.5, -9999,  20.1,  19.9,  17.9,   0.0,  0.00, 
 09/07/15, 05:00,  18.2, -9999,  19.9,  19.8,  17.9,   0.0,  0.00, 
 09/07/15, 06:00,  18.0, -9999,  19.7,  19.7,  17.9,   0.0,  0.07, 
 09/07/15, 07:00,  18.5, -9999,  19.5,  19.6,  18.0,   0.0,  0.46, 
 09/07/15, 08:00,  18.7, -9999,  19.5,  19.6,  18.0,   0.0,  0.53, 
 09/07/15, 09:00,  20.8, -9999,  19.6,  19.5,  18.0,   0.0,  1.55, 
 09/07/15, 10:00,  21.2, -9999,  20.2,  19.4,  18.0,   0.0,  2.67, 
 09/07/15, 11:00,  22.6, -9999,  21.1,  19.4,  18.0,   0.0,  2.62, 
 09/07/15, 12:00,  23.4, -9999,  22.0,  19.4,  18.0,   0.0,  2.81, 
 09/07/15, 13:00,  23.3, -9999,  23.3,  19.6,  18.0,   0.0,  2.59, 
 09/07/15, 14:00,  22.6, -9999,  23.7,  19.7,  18.1,   0.0,  1.58, 